Weather observations for the past three days for
Muir Army Air Field / Indiantown
Imperial (Metric)
Date Time (edt) Wind (mph) Vis. (mi.) Weather Sky Cond. Temperature (ºF) Relative Humidity Wind Chill (°F) Heat Index (°F) Pressure Precipitation (in)
Air Dwpt 6 hour altimeter (in) sea level (mb) 1 hr 3 hr 6 hr
Max. Min.
23 01:55 Calm 9.00 Overcast SCT012 BKN070 OVC085 70.2 68.4 71.6 69.6 94% 29.95 1014.2 0.13
23 00:55 Calm 9.00 Overcast BKN017 OVC100 69.8 68.2 95% 29.96 1014.5
22 23:55 N 3 10.00 Overcast FEW100 OVC120 70.3 68.5 94% 29.96 1014.5 0.02
22 22:55 Calm 9.00 Overcast OVC095 70.9 68.7 93% 29.98 1015.2 0.06 0.11
22 21:55 Calm 5.00 Light Rain Fog/Mist FEW003 SCT017 BKN024 OVC040 71.1 69.4 95% 29.98 1015.2
22 20:55 Calm 7.00 Light Rain FEW003 BKN018 OVC075 70.9 69.1 94% 29.98 1015.2
22 19:55 Calm 7.00 Light Rain FEW003 SCT020 BKN047 BKN095 71.8 69.3 76.6 71.1 92% 29.97 1014.9 0.62
22 18:55 Calm 7.00 Showers in Vicinity FEW003 SCT019 BKN044 OVC060 71.4 68.9 92% 29.99 1015.6
22 17:57 Calm 6.00 Light Rain BKN019 BKN090 BKN110 76.1 70.2 82% 77 29.98 1015.2
22 16:58 Calm 10.00 Showers in Vicinity FEW008 SCT035 BKN110 OVC130 75.7 70.2 83% 76 29.98 1015.2 0.6
22 15:58 Calm 7.00 Light Rain FEW003 SCT035 BKN095 OVC120 74.1 70.3 88% 30.01 1016.3
22 14:55 E 5 6.00 Thunderstorm in Vicinity Light Rain FEW002 SCT022 OVC035CB 73.6 69.8 88% 30.02 1016.6
22 13:55 W 7 10.00 Light Rain BKN023 BKN030 BKN039 76.1 70.5 81.1 73.6 83% 77 30.01 1016.2 0.03 0.03
22 12:55 SE 7 10.00 Thunderstorm Light Rain BKN019CB OVC026 80.1 71.8 76% 84 30.02 1016.5
22 11:55 SE 8 10.00 Overcast OVC015 80.2 71.6 75% 84 30.04 1017.2
22 10:55 Calm 10.00 Overcast OVC014 77.7 69.1 75% 80 30.05 1017.5
22 09:55 Calm 10.00 Overcast OVC011 75.7 67.6 76% 77 30.04 1017.2
22 08:55 Calm 10.00 Overcast OVC011 74.3 66.2 76% 30.04 1017.2
22 07:55 NE 3 10.00 Overcast OVC011 73.8 66 73.8 66.7 77% 30.04 1017.2
22 06:55 NE 3 10.00 Overcast OVC011 72.3 65.5 79% 30.05 1017.5
22 05:55 NE 3 10.00 Overcast OVC013 71.6 64.4 78% 30.04 1017.1
22 04:55 NE 3 10.00 Partly Cloudy SCT210 70.3 63.1 78% 30.04 1017.1
22 03:55 NE 3 10.00 Fair CLR 68.4 60.1 75% 30.04 1017.2
22 02:55 Calm 10.00 A Few Clouds FEW200 67.5 60.3 78% 30.04 1017.2
22 01:55 Calm 10.00 Overcast OVC200 69.6 59.4 82.4 67.6 70% 30.05 1017.5
22 00:55 Calm 10.00 Fair CLR 70.3 57.2 63% 30.06 1017.8
21 23:55 Calm 10.00 Mostly Cloudy BKN200 69.8 58.3 67% 30.06 1017.8
21 22:55 Calm 10.00 Drizzle SCT055 BKN200 71.8 58.5 63% 30.06 1017.9
21 21:55 Calm 10.00 Drizzle FEW060 BKN210 74.1 58.3 58% 30.04 1017.2
21 20:55 NE 5 10.00 Fair CLR 80.4 55.8 43% 80 30.02 1016.5
21 19:55 NE 3 10.00 Fair CLR 82.4 58.8 91.2 82.4 45% 82 30.01 1016.2
21 18:55 N 5 10.00 Fair CLR 85.6 59.2 41% 85 30 1015.8
21 17:55 NW 8 10.00 Fair CLR 89.4 58.1 35% 88 29.99 1015.5
21 16:55 NW 8 10.00 Fair CLR 90.3 58.8 35% 89 29.99 1015.5
21 15:55 W 10 10.00 A Few Clouds FEW070 90.3 58.1 34% 89 30 1015.8
21 14:55 NW 12 10.00 Mostly Cloudy SCT075 BKN095 89.6 57.4 34% 88 30 1015.8
21 13:55 N 6 10.00 Partly Cloudy SCT065 88.9 58.5 91 72.9 36% 88 30.01 1016.1
21 12:55 NW 8 10.00 Mostly Cloudy BKN055 BKN070 87.4 60.1 40% 87 30.01 1016.1
21 11:55 W 6 10.00 Mostly Cloudy BKN046 BKN070 86 63.3 47% 87 30.02 1016.5
21 10:55 Calm 10.00 Partly Cloudy SCT031 82.8 66.4 58% 85 30.03 1016.8
21 09:55 Calm 10.00 Fair CLR 80.4 68 66% 83 30.03 1016.8
21 08:55 SE 3 10.00 Fair CLR 76.8 66.7 71% 79 30.04 1017.2
21 07:55 Calm 10.00 Fair CLR 72.9 66.2 72.9 64.9 80% 30.04 1017.2
21 06:55 Calm 10.00 Fair CLR 68.2 65.5 91% 30.03 1016.9
21 05:55 Calm 10.00 Fair CLR 66.2 64.4 94% 30.02 1016.5
21 04:55 Calm 10.00 Overcast SCT060 OVC080 67.1 64.9 93% 30.01 1016.2
21 03:55 Calm 10.00 Partly Cloudy SCT085 67.1 64.9 93% 30.01 1016.2
21 02:55 Calm 10.00 Mostly Cloudy BKN100 67.1 64.9 93% 30.02 1016.5
21 01:55 Calm 10.00 Fair CLR 68.5 65.8 79.5 68 91% 30.02 1016.5
21 00:55 Calm 10.00 Partly Cloudy FEW024 SCT120 70 66.2 88% 30.03 1016.8
20 23:55 Calm 10.00 Mostly Cloudy BKN039 BKN120 71.6 67.1 86% 30.03 1016.8
20 22:55 N 3 10.00 A Few Clouds FEW100 72.1 66.9 84% 30.05 1017.5
20 21:55 S 5 10.00 Fair CLR 76.3 66.6 72% 78 30.04 1017.2
20 20:55 S 5 10.00 Fair CLR 77.9 66.4 68% 80 30.03 1016.8
20 19:55 S 8 10.00 Fair CLR 79.7 64.9 87.1 79.7 61% 82 30.02 1016.5
20 18:55 S 12 10.00 Partly Cloudy SCT220 81.7 63.9 55% 83 30.01 1016.2
20 17:55 S 9 10.00 Mostly Cloudy SCT075 BKN100 84 64.4 52% 86 30.01 1016.2
20 16:55 S 12 10.00 Overcast OVC100 84 63.3 50% 85 30.03 1016.9
20 15:55 SW 9 10.00 Overcast BKN070 OVC100 82.2 64.4 55% 84 30.04 1017.2
20 14:55 S 14 10.00 Overcast SCT049 OVC065 84.4 61.9 47% 85 30.04 1017.2
20 13:55 S 14 10.00 Overcast FEW048 OVC070 86.5 62.1 86.5 69.6 44% 87 30.06 1017.9
20 12:55 S 8 10.00 Mostly Cloudy FEW043 SCT070 BKN210 84.6 63.3 49% 86 30.07 1018.2
20 11:55 SW 8 10.00 A Few Clouds FEW150 FEW190 84 62.8 49% 85 30.07 1018.2
20 10:55 S 5 10.00 Mostly Cloudy BKN070 BKN100 79.3 64.2 60% 81 30.09 1018.9
20 09:55 SE 5 10.00 Mostly Cloudy BKN060 77.2 63.5 63% 79 30.1 1019.3
20 08:55 Calm 10.00 Fair CLR 74.1 62.4 67% 30.1 1019.3
20 07:55 Calm 10.00 Partly Cloudy SCT110 69.4 61.5 69.4 63 76% 30.1 1019.3
20 06:55 Calm 10.00 Partly Cloudy FEW100 FEW140 SCT220 65.5 59.9 82% 30.1 1019.2
20 05:55 Calm 10.00 Overcast OVC036 64.9 58.6 80% 30.11 1019.6
20 04:55 Calm 10.00 Fair CLR 63.3 58.6 85% 30.1 1019.3
20 03:55 Calm 10.00 Fair CLR 65.3 58.6 79% 30.09 1018.9
20 02:55 Calm 10.00 Overcast OVC043 66 58.3 76% 30.1 1019.2
Date Time (edt) Wind (mph) Vis. (mi.) Weather Sky Cond. Air Dwpt Max. Min. Relative Humidity Wind Chill (°F) Heat Index (°F) altimeter (in) sea level (mb) 1 hr 3 hr 6 hr
6 hour
Temperature (ºF) Pressure Precipitation (in)